[[{"header":{"parameterUnit":"m.s-1","parameterCategory":1,"la1":30.2991,"la2":30.254,"lo1":-89.0895,"lo2":-89.0444,"dy":0.0017,"dx":0.0017,"nx":28,"ny":28,"refTime":"2024-02-01T03:00:00:Z","depth":0,"parameterNumber":2,"parameterNumberName":"U-component_of_WINDS"},"data":[0,0,0,0,0,0,0,0,0,0,0,0,0,0,0,0,0,0,0,0,0,0,0,0,0,0,0,0,0,0,0,0,0,0,0,0,0,0,0,0,0,0,0,0,0,0,0,0,0,0,0,0,0,0,0,0,0,0,-0.0761,-0.076,0,-0.0657,-0.0655,-0.0654,-0.059,-0.059,-0.0589,-0.0589,-0.0482,-0.0479,-0.0476,0,0,0,0,0,0,0,0,0,0,0,0,0,-0.0905,-0.0903,-0.0761,-0.076,-0.0758,-0.0657,-0.0655,-0.0654,-0.059,-0.059,-0.0589,-0.0589,-0.0482,-0.0479,-0.0476,0,0,0,0,0,0,0,0,0,0,0,0,0,-0.0826,-0.0902,-0.0761,-0.0714,-0.0709,-0.0657,-0.0655,-0.0654,-0.059,-0.059,-0.0589,-0.0589,-0.0483,-0.048,-0.0476,-0.0462,0,0,-0.0464,-0.0462,0,0,0,0,0,0,0,0,-0.083,-0.0821,-0.0723,-0.0718,-0.0712,-0.0636,-0.0667,-0.0589,-0.059,-0.0635,-0.0589,-0.0588,-0.0533,-0.0525,-0.0507,-0.0457,-0.0452,-0.0464,-0.0461,-0.046,-0.0459,0,0,0,0,0,0,0,-0.0836,-0.0825,-0.072,-0.0721,-0.0714,-0.0698,-0.0687,-0.0652,-0.0588,-0.0631,-0.0626,-0.0615,-0.053,-0.0511,-0.0504,-0.0451,-0.0464,-0.046,-0.0458,-0.0457,-0.0386,-0.0386,0,0,0,0,0,0,-0.0849,-0.083,-0.0723,-0.0717,-0.0771,-0.0696,-0.0683,-0.0661,-0.0589,-0.0577,-0.0616,-0.0612,-0.0517,-0.0508,-0.05,-0.048,-0.046,-0.0456,-0.0454,-0.0385,-0.0386,-0.0386,0,0,0,0,0,0,-0.0852,-0.084,-0.0727,-0.0772,-0.0756,-0.0694,-0.067,-0.0659,-0.0639,-0.0577,-0.0565,-0.0607,-0.0517,-0.0505,-0.0472,-0.0475,-0.0455,-0.0451,-0.0385,-0.0385,-0.0386,-0.0439,0,0,0,0,0,0,-0.0857,-0.0842,-0.0836,-0.0772,-0.0754,-0.0702,-0.067,-0.0657,-0.0633,-0.0628,-0.0566,-0.0555,-0.0515,-0.0478,-0.0468,-0.0469,-0.0448,-0.0384,-0.0385,-0.0386,-0.0437,-0.0442,-0.0445,0,0,0,0,0,-0.0862,-0.0854,-0.0836,-0.0823,-0.0745,-0.0702,-0.0692,-0.0646,-0.0633,-0.0627,-0.0587,-0.0557,-0.0476,-0.0475,-0.0464,-0.0464,-0.0384,-0.0385,-0.0386,-0.0435,-0.0441,-0.0445,0,0,0,0,0,0,-0.092,-0.0845,-0.0824,-0.0795,-0.0756,-0.0691,-0.0682,-0.0654,-0.0616,-0.0613,-0.0558,-0.0545,-0.0518,-0.0487,-0.0488,-0.0447,-0.0427,-0.0425,-0.0468,-0.0473,-0.0477,-0.0485,-0.0445,0,0,0,0,0,-0.0929,-0.09,-0.0837,-0.0818,-0.0799,-0.0744,-0.0723,-0.0692,-0.0648,-0.0631,-0.0588,-0.0547,-0.0513,-0.0491,-0.0455,-0.0432,-0.0418,-0.0426,-0.0431,-0.0434,-0.0434,-0.042,-0.0423,-0.0389,-0.0389,-0.0389,0,0,-0.0948,-0.0904,-0.0889,-0.0828,-0.0794,-0.0765,-0.073,-0.0701,-0.0679,-0.0627,-0.0593,-0.0561,-0.0511,-0.0483,-0.0469,-0.0457,-0.044,-0.0436,-0.0439,-0.0436,-0.0422,-0.0425,-0.0428,-0.039,-0.039,-0.039,0,0,-0.0968,-0.0932,-0.0913,-0.0879,-0.0827,-0.0791,-0.0787,-0.0727,-0.0703,-0.0669,-0.0629,-0.0602,-0.0544,-0.051,-0.0485,-0.0494,-0.0466,-0.0484,-0.0507,-0.0494,-0.0497,-0.0499,-0.0503,-0.0505,-0.0484,-0.0484,-0.0484,0,-0.0999,-0.0954,-0.0906,-0.088,-0.0855,-0.0806,-0.0786,-0.0756,-0.0695,-0.0679,-0.0667,-0.0593,-0.0556,-0.052,-0.0522,-0.0503,-0.0497,-0.0491,-0.05,-0.0502,-0.0503,-0.0506,-0.0508,-0.0487,-0.0486,-0.0486,-0.0486,0,-0.0994,-0.0964,-0.0955,-0.0898,-0.0872,-0.0849,-0.0798,-0.0777,-0.0748,-0.0713,-0.0679,-0.0633,-0.0588,-0.0577,-0.0549,-0.0538,-0.0532,-0.0511,-0.0489,-0.051,-0.0512,-0.0513,-0.0491,-0.049,-0.0489,-0.0488,0,0,-0.1048,-0.0966,-0.0963,-0.0937,-0.0877,-0.0853,-0.0828,-0.0784,-0.0768,-0.0728,-0.0706,-0.0658,-0.0638,-0.061,-0.0577,-0.0566,-0.0577,-0.0546,-0.0544,-0.0554,-0.0563,-0.058,-0.0582,-0.0558,-0.0558,-0.0558,-0.0568,0,-0.106,-0.1013,-0.097,-0.0939,-0.091,-0.0864,-0.0843,-0.0804,-0.0771,-0.0742,-0.0705,-0.0672,-0.0648,-0.0631,-0.0618,-0.0579,-0.0578,-0.0577,-0.0537,-0.0536,-0.0552,-0.0583,-0.0601,-0.0613,-0.0568,-0.0568,-0.0568,0,-0.1067,-0.103,-0.0997,-0.094,-0.0927,-0.0908,-0.0865,-0.0838,-0.0793,-0.077,-0.074,-0.0705,-0.0677,-0.0659,-0.0619,-0.062,-0.0601,-0.0579,-0.0578,-0.0573,-0.0554,-0.058,-0.0615,-0.0617,-0.0569,-0.0569,-0.0569,0,-0.1111,-0.1052,-0.1025,-0.1004,-0.0937,-0.0926,-0.0897,-0.0852,-0.0829,-0.0791,-0.0775,-0.0735,-0.0713,-0.0683,-0.0638,-0.0629,-0.0604,-0.0582,-0.0584,-0.0586,-0.0582,-0.0583,-0.0615,-0.0569,-0.0569,-0.0568,-0.0568,0,-0.1129,-0.1111,-0.1044,-0.1027,-0.1005,-0.0956,-0.0935,-0.0903,-0.0863,-0.0839,-0.0796,-0.0775,-0.0718,-0.069,-0.0655,-0.0628,-0.0618,-0.0599,-0.059,-0.0603,-0.0606,-0.059,-0.0589,-0.0569,-0.0569,-0.0569,-0.0569,0,-0.1174,-0.1129,-0.1096,-0.1036,-0.102,-0.1007,-0.0955,-0.0937,-0.0902,-0.0873,-0.0863,-0.0808,-0.0773,-0.0725,-0.0675,-0.0652,-0.063,-0.0615,-0.0646,-0.064,-0.0646,-0.0647,-0.067,-0.0671,-0.0624,-0.0625,-0.0625,0,-0.1189,-0.1174,-0.1113,-0.1094,-0.1067,-0.1038,-0.1014,-0.0965,-0.0942,-0.089,-0.0879,-0.084,-0.0807,-0.0753,-0.0708,-0.067,-0.0655,-0.0666,-0.0649,-0.0663,-0.0656,-0.0658,-0.0657,-0.067,-0.0671,-0.0672,-0.0672,0,-0.1221,-0.12,-0.1168,-0.1128,-0.1101,-0.1068,-0.1032,-0.1019,-0.0962,-0.0939,-0.0903,-0.0877,-0.0826,-0.0789,-0.0745,-0.0715,-0.0685,-0.0678,-0.0677,-0.069,-0.0709,-0.07,-0.0658,-0.0678,-0.0677,-0.0677,-0.0676,-0.0676,-0.1252,-0.1237,-0.1192,-0.1158,-0.1126,-0.1094,-0.1075,-0.1037,-0.1006,-0.0962,-0.0934,-0.09,-0.0855,-0.0793,-0.0765,-0.0737,-0.0725,-0.0723,-0.0723,-0.0723,-0.0728,-0.0713,-0.0729,-0.0729,-0.0729,-0.0728,-0.0728,0,-0.1283,-0.1252,-0.1221,-0.1173,-0.1146,-0.112,-0.1079,-0.1059,-0.1029,-0.099,-0.0959,-0.0918,-0.0882,-0.0834,-0.0795,-0.0782,-0.0767,-0.0773,-0.0774,-0.0768,-0.0741,-0.0746,-0.0786,-0.0786,-0.0786,-0.0786,-0.0786,-0.0786,-0.1296,-0.1269,-0.1243,-0.12,-0.1168,-0.1135,-0.1114,-0.1084,-0.1053,-0.101,-0.098,-0.0949,-0.0907,-0.0865,-0.0831,-0.0817,-0.0805,-0.0816,-0.0799,-0.0775,-0.077,-0.0765,-0.077,-0.0814,-0.0814,-0.0829,-0.0829,-0.0829]},{"header":{"parameterUnit":"m.s-1","parameterCategory":1,"la1":30.2991,"la2":30.254,"lo1":-89.0895,"lo2":-89.0444,"dy":0.0017,"dx":0.0017,"nx":28,"ny":28,"refTime":"2024-02-01T03:00:00:Z","depth":0,"parameterNumber":3,"parameterNumberName":"V-component_of_WINDS"},"data":[0,0,0,0,0,0,0,0,0,0,0,0,0,0,0,0,0,0,0,0,0,0,0,0,0,0,0,0,0,0,0,0,0,0,0,0,0,0,0,0,0,0,0,0,0,0,0,0,0,0,0,0,0,0,0,0,0,0,1.058,1.0579,0,1.0497,1.0496,1.0495,1.0444,1.0444,1.0444,1.0444,1.0354,1.0352,1.0349,0,0,0,0,0,0,0,0,0,0,0,0,0,1.0692,1.0691,1.058,1.0579,1.0578,1.0497,1.0496,1.0495,1.0444,1.0444,1.0444,1.0444,1.0354,1.0352,1.0349,0,0,0,0,0,0,0,0,0,0,0,0,0,1.063,1.069,1.058,1.0543,1.0539,1.0497,1.0496,1.0494,1.0445,1.0444,1.0444,1.0444,1.0355,1.0352,1.0349,1.0335,0,0,1.0339,1.0337,0,0,0,0,0,0,0,0,1.0633,1.0626,1.055,1.0546,1.0541,1.0481,1.0502,1.0441,1.0445,1.048,1.0444,1.0443,1.0396,1.0389,1.0374,1.0331,1.0327,1.0339,1.0337,1.0335,1.0334,0,0,0,0,0,0,0,1.0638,1.0629,1.0547,1.0549,1.0544,1.053,1.052,1.049,1.0441,1.0477,1.0473,1.0464,1.0393,1.0378,1.0372,1.0326,1.0339,1.0336,1.0334,1.0332,1.0268,1.0268,0,0,0,0,0,0,1.0648,1.0633,1.055,1.0545,1.0588,1.0528,1.0518,1.05,1.0441,1.0432,1.0465,1.0462,1.0383,1.0376,1.0368,1.0349,1.0335,1.0332,1.033,1.0268,1.0268,1.0268,0,0,0,0,0,0,1.0651,1.0642,1.0553,1.0588,1.0575,1.0527,1.0508,1.0499,1.0483,1.0432,1.0422,1.0458,1.0383,1.0373,1.0344,1.0345,1.0331,1.0328,1.0267,1.0268,1.0268,1.031,0,0,0,0,0,0,1.0655,1.0643,1.0638,1.0588,1.0574,1.0532,1.0508,1.0498,1.0478,1.0474,1.0423,1.0414,1.0382,1.035,1.0341,1.034,1.0325,1.0267,1.0268,1.0268,1.0308,1.0312,1.0315,0,0,0,0,0,1.0659,1.0652,1.0638,1.0628,1.0567,1.0532,1.0524,1.0488,1.0478,1.0473,1.044,1.0416,1.0347,1.0347,1.0337,1.0335,1.0267,1.0267,1.0268,1.0307,1.0311,1.0315,0,0,0,0,0,0,1.0702,1.0645,1.0629,1.0606,1.0575,1.0524,1.0515,1.0493,1.0463,1.046,1.0416,1.0405,1.038,1.0355,1.0356,1.0319,1.0304,1.0303,1.0337,1.0341,1.0344,1.035,1.0322,0,0,0,0,0,1.0709,1.0687,1.0637,1.0622,1.0607,1.0564,1.0548,1.0523,1.0488,1.0474,1.0439,1.0404,1.0375,1.0356,1.0326,1.0305,1.0292,1.0298,1.0302,1.0305,1.0304,1.029,1.0293,1.027,1.027,1.027,0,0,1.0723,1.0689,1.0677,1.063,1.0603,1.0579,1.0553,1.0529,1.0511,1.0469,1.0441,1.0414,1.0373,1.0348,1.0335,1.0326,1.0307,1.0305,1.0308,1.0305,1.0291,1.0293,1.0295,1.027,1.027,1.027,0,0,1.0736,1.0709,1.0693,1.0667,1.0627,1.0598,1.0595,1.0547,1.0528,1.0499,1.0468,1.0445,1.0395,1.0367,1.0346,1.035,1.0327,1.0342,1.0358,1.0346,1.0348,1.0349,1.035,1.0351,1.0341,1.0341,1.0341,0,1.0758,1.0723,1.0688,1.0666,1.0646,1.0609,1.0593,1.0568,1.0519,1.0506,1.0497,1.0434,1.0403,1.0372,1.0373,1.0357,1.0351,1.0347,1.0351,1.0352,1.0352,1.0353,1.0354,1.0343,1.0343,1.0343,1.0343,0,1.0752,1.0729,1.0721,1.0677,1.0656,1.0637,1.0597,1.058,1.0558,1.053,1.0501,1.0463,1.0425,1.0415,1.0392,1.038,1.0376,1.0359,1.0343,1.0357,1.0357,1.0357,1.0346,1.0346,1.0345,1.0344,0,0,1.079,1.0728,1.0725,1.0705,1.0658,1.0639,1.0618,1.0582,1.0569,1.0536,1.0517,1.0476,1.0461,1.0438,1.0411,1.04,1.0406,1.0385,1.0383,1.039,1.039,1.0403,1.0404,1.0391,1.0391,1.039,1.0394,0,1.0796,1.0759,1.0727,1.0701,1.0678,1.0643,1.0625,1.0594,1.0567,1.0543,1.0513,1.0486,1.0467,1.0453,1.0441,1.0408,1.0406,1.0407,1.0371,1.0371,1.0383,1.0404,1.0417,1.0422,1.0394,1.0394,1.0394,0,1.0799,1.077,1.0743,1.0699,1.0689,1.0673,1.0638,1.0616,1.058,1.0561,1.0536,1.0509,1.0484,1.0471,1.0436,1.0438,1.0421,1.0403,1.0402,1.0397,1.0383,1.04,1.0423,1.0424,1.0393,1.0393,1.0393,0,1.0829,1.0784,1.0761,1.0745,1.0694,1.0684,1.0661,1.0625,1.0606,1.0575,1.0562,1.0528,1.0509,1.0483,1.0447,1.0441,1.0416,1.0399,1.0399,1.04,1.0395,1.0396,1.0416,1.0384,1.0384,1.0384,1.0384,0,1.084,1.0824,1.0774,1.0761,1.0742,1.0705,1.0687,1.0661,1.0629,1.0609,1.0576,1.0557,1.0511,1.0487,1.0458,1.0434,1.0425,1.0409,1.0401,1.0412,1.0414,1.04,1.0398,1.0385,1.0385,1.0385,1.0385,0,1.087,1.0836,1.081,1.0764,1.0752,1.074,1.07,1.0685,1.0658,1.0633,1.0624,1.058,1.055,1.0512,1.0468,1.0449,1.0428,1.0416,1.0441,1.0436,1.0438,1.0438,1.045,1.0449,1.0419,1.0419,1.042,0,1.0879,1.0867,1.082,1.0805,1.0785,1.0761,1.0742,1.0704,1.0686,1.0644,1.0634,1.0601,1.0573,1.0526,1.049,1.0456,1.0444,1.045,1.0438,1.0449,1.0444,1.0445,1.0443,1.0453,1.0454,1.0454,1.0454,0,1.0898,1.0883,1.0858,1.0827,1.0806,1.078,1.0751,1.0741,1.0697,1.0677,1.0647,1.0626,1.0583,1.0551,1.0513,1.0488,1.0464,1.0459,1.0457,1.0467,1.0482,1.0474,1.0449,1.0458,1.0458,1.0458,1.0457,1.0457,1.0918,1.0906,1.0872,1.0845,1.082,1.0795,1.0779,1.075,1.0725,1.0688,1.0667,1.0638,1.0601,1.0549,1.0525,1.0501,1.0491,1.0489,1.0488,1.0488,1.0491,1.0486,1.0493,1.0493,1.0493,1.0493,1.0493,0,1.0936,1.0913,1.0889,1.0852,1.0831,1.0811,1.0779,1.0763,1.0738,1.0707,1.0681,1.0646,1.0615,1.0576,1.0542,1.053,1.0518,1.0522,1.0523,1.0517,1.0501,1.0506,1.0533,1.0533,1.0533,1.0533,1.0533,1.0533,1.0943,1.0921,1.0901,1.0867,1.0843,1.0816,1.0799,1.0775,1.0751,1.0714,1.0689,1.0665,1.0631,1.0594,1.0565,1.0554,1.0543,1.0551,1.0537,1.0522,1.0518,1.0515,1.052,1.0549,1.0549,1.0555,1.0555,1.0555]}]]